Regional Weather Roundup
Issued by NWS Wakefield, VA

Home | Current Version | Previous Version | Text Only | Print | Product List | Glossary On
Versions: 1 2 3 4 5 6 7 8 9 10 11 12 13 14 15 16 17 18 19 20 21 22 23 24 25 26 27 28 29
000
ASUS41 KAKQ 251210
RWRAKQ

REGIONAL WEATHER ROUNDUP
NATIONAL WEATHER SERVICE WAKEFIELD VA
800 AM EDT SAT OCT 25 2014

Note: "fair" indicates few or no clouds below 12,000 feet with no
significant weather and/or obstructions to visibility. * = Denotes
station may not report precipitation (e.g., rain,snow,etc.),
thunder or fog.

VAZ042-051-052>054-056-251300-
NORTHERN VIRGINIA

CITY           SKY/WX    TMP DP  RH WIND       PRES   REMARKS
WASH NATIONAL  CLEAR     50  41  71 SW3       29.97S
DULLES         CLEAR     43  39  86 CALM      29.96S
FORT BELVOIR   CLEAR     39  38  96 CALM      29.97S
QUANTICO       CLEAR     43  39  86 NW8       29.98S
FREDERICKSBRG* CLEAR     38  38 100 CALM      29.97S
STAFFORD*      CLEAR    N/A N/A N/A CALM      30.01S
WARRENTON      CLEAR     35  35 100 CALM      29.97S
CULPEPER*      CLEAR     36  34  93 CALM      29.98S
MANASSAS*      NOT AVBL
LEESBURG*      CLEAR     50  41  71 CALM      29.97R
WINCHESTER     CLEAR     43  32  65 CALM      29.97S
FRONT ROYAL*   SUNNY     43  36  75 S6        29.98R
LURAY*         SUNNY     39  39 100 S5        30.01R
$$

VAZ048-049-060>072-079>083-251300-
CENTRAL AND SOUTH CENTRAL VIRGINIA...AND NORTH CENTRAL NORTH CAROLINA

CITY           SKY/WX    TMP DP  RH WIND       PRES   REMARKS
RICHMOND       CLEAR     42  38  85 CALM      29.98S
CHESTERFIELD*    N/A    N/A N/A N/A MISG        N/A
PETERSBURG*    CLEAR     35  34  97 SW3       30.00R
HANOVER        CLEAR     37  36  96 CALM      30.00S FOG
TAPPAHANNOCK*  CLEAR     37  34  91 CALM      29.98S
CHARLOTTSVILLE CLEAR     47  33  58 W6        29.98S
ORANGE*        CLEAR     34  34 100 CALM      29.98F
LOUISA*        CLEAR     34  34 100 CALM      29.97S
FARMVILLE*     CLEAR     34  34 100 S3        29.98F FOG
CREWE*         SUNNY     37  35  94 CALM      30.00S
FORT PICKETT*  SUNNY     41  41  98 CALM      30.00S
LUNENBURG*     SUNNY     41  40  97 CALM      30.00R
SOUTH HILL*    CLEAR     43  43 100 CALM      30.05R
LAWRENCEVILLE* SUNNY     38  38 100 CALM      30.00R
ROANOKE RAPIDS FOG       37  37 100 CALM      30.00R VSB 3/4
RALEIGH        CLEAR     39  37  92 CALM      30.02R
$$

VAZ088>098-251300-
SOUTHEAST VIRGINIA

CITY           SKY/WX    TMP DP  RH WIND       PRES   REMARKS
NORFOLK        CLEAR     58  44  60 N7        29.97S
VIRGINIA BEACH CLEAR     48  43  82 SW3       29.97R
NORFOLK NAVAL  CLEAR     57  45  64 N7        29.99S
WEST POINT*    CLEAR     39  37  91 CALM      30.00S
NEWPORT NEWS   CLEAR     46  40  79 CALM      29.98R
LANGLEY AFB    CLEAR     45  45  99 SW2       29.98S
FORT EUSTIS    CLEAR     47  42  80 N2        29.97R
WILLIAMSBURG*  CLEAR     46  45  93 N3        29.99R
HR EXEC AP*    SUNNY     36  34  93 CALM      30.00S
FRANKLIN*      CLEAR     37  37 100 CALM      29.99S
WAKEFIELD      CLEAR     40  37  89 CALM      29.99R
$$

VAZ020-022-025-037-045-251300-
WEST CENTRAL AND SOUTHWEST VIRGINIA

CITY           SKY/WX    TMP DP  RH WIND       PRES   REMARKS
STAUNTON*      CLEAR     32  30  92 CALM      30.03R
HOT SPRINGS VA CLEAR     42  35  77 W12       30.00S
LYNCHBURG      CLEAR     35  35 100 CALM      30.01F
DANVILLE       CLEAR     38  36  92 SW5       30.02S
SOUTH BOSTON*  NOT AVBL
MARTINSVILLE   CLEAR     32  32 100 CALM      30.04S
ROANOKE        CLEAR     45  37  73 NW6       30.06R
BLACKSBURG     CLEAR     37  37 100 CALM      30.08R
DUBLIN*        CLEAR     43  39  87 SW3       30.08R
MARION*        CLEAR     38  36  91 W8        30.10S
HILLSVILLE*    CLEAR     44  37  75 NW8       30.07R
RICHLANDS*     SUNNY     42  39  89 S3        30.08S
WISE*          CLEAR     45  37  76 CALM      30.09S
ABINGDON*      CLEAR     36  36  97 CALM      30.10S
$$

MDZ021>025-VAZ099-100-251300-
SOUTHERN MARYLAND AND THE DELMARVA PENINSULA

CITY           SKY/WX    TMP DP  RH WIND       PRES   REMARKS
PATUXENT RIVER CLEAR     45  39  79 W6        29.96S
BAY BRIDGE APT   N/A     52  41  66 CALM      29.96R
LEONARDTOWN    CLEAR     37  36  93 W3        29.98S
DOVER          CLEAR     45  40  84 W5        29.91R
GEORGETOWN     CLEAR     45  40  82 CALM      29.95R
EASTON         NOT AVBL
CAMBRIDGE      CLEAR     43  41  93 CALM      29.95R
SALISBURY      CLEAR     42  37  82 CALM      29.95R
OCEAN CITY     CLEAR     46  40  79 NW3       29.93S
WALLOPS ISLAND CLEAR     49  43  80 NW5       29.95S
ACCOMACK*      CLEAR     45  43  93 CALM      29.96S
$$

NCZ012>017-030>032-251300-
EASTERN NORTH CAROLINA

CITY           SKY/WX    TMP DP  RH WIND       PRES   REMARKS
ELIZABETH CITY CLEAR     47  43  86 CALM      29.99R
AHOSKIE*       CLEAR     38  37  97 CALM      30.00R
EDENTON*       CLEAR     43  42  97 CALM      29.99S
CURRITUCK*     CLEAR     45  43  90 CALM      29.99R
KILL DEVIL HLS CLEAR     54  52  94 W3        29.96R
MANTEO         CLEAR     48  47  97 NW5       29.98R FOG
CAPE HATTERAS  CLEAR     57  53  86 N3        29.97R
TARBORO*       SUNNY     38  37  97 CALM      30.01S
GOLDSBORO      CLEAR     45  45 100 W3        29.99S FOG
WASHINGTON     CLEAR     43  41  95 CALM      30.00R
GREENVILLE     SNOW      43  41  93 CALM      30.02S VSB 1/4
NEW BERN       CLEAR     47  44  90 CALM      30.01R FOG
WILMINGTON     CLEAR     45  44  97 CALM      30.00R
$$

VAZ048-251300-
ELSEWHERE

CITY           SKY/WX    TMP DP  RH WIND       PRES   REMARKS
HARRISBURG PA  CLEAR     43  40  89 CALM      29.92S
BALTIMORE      PTCLDY    46  39  76 CALM      29.94S
ANNAPOLIS      CLEAR     47  39  74 SW3       29.95R
ANDREWS AFB    CLEAR     44  40  86 CALM      29.95S
WILMINGTON DE  CLEAR     43  40  89 W6        29.94R
PHILADELPHIA   PTCLDY    48  38  68 W6        29.93R
WILDWOOD NJ*   CLEAR     54  41  62 NW5       29.93S
ATLANTIC CITY  CLEAR     43  39  86 W3        29.91R
HENDERSON NC   CLEAR     44  38  81 CALM      30.02R
GREENSBORO     CLEAR     39  35  86 CALM      30.01S
ROCKY MOUNT    FOG       42  41  96 CALM      30.01R VSB 1/4
FAYETTEVILLE   CLEAR     45  42  89 CALM      30.01R
CHARLOTTE      CLEAR     40  37  89 CALM      30.04R
$$

VAZ100-251300-
MARINE

STATION/POSITION TIME  TEMP    WIND        PRES    WAVE   SWELL
                       AIR SEA DIR/SP/G            HT/PER HT/PER
                 (UTC) (F)     (DEG/KT/KT) (MB)    (FT/S) (FT/S)
44066 TX TWR #4  1200   60 65  330/ 14/ 17 1010.5R   5/ 5   2/ 9
CAPE MAY NJ      1200   57 63  320/  9/ 12 1012.6R
LEWES DE         1200   51 61  280/  9/ 10 1013.2R
15NM E FENWICK I 1200   60 64  330/ 14/ 16 1012.7R   4/ 5   2/10
OCEAN-CITY-INLET 1200   50 60  360/  4/  5 1013.2F
WACHAPREAGUE VA  1200   53 59  330/  1/  3 1014.3F
THOMAS POINT MD  1200   53 61  290/  9/ 10 1015.3R
GOOSES REEF MD   1200   56     310/ 10/ 12 1014.8S
COVE POINT MD    1200   52     310/  8/ 10 1014.4R
SOLOMONS ISLAND  1200      63                N/A
BISHOPS HEAD MD  1200   54 56  310/  6/  8 1013.7R
PINEY POINT MD   1200          330/  9/ 10   N/A
POTOMAC MD       1200   57     330/ 12/ 14 1014.1R
CAMBRIDGE MD     1200   51 60  220/  4/  5 1013.9R
LEWISETTA VA     1200   50 58  270/  5/  5 1014.4F
RAPPAHANNOCK LGT 1200          340/ 13/ 14 1014.8S
STINGRAY PT      1200   57     330/  8/ 10 1015.3S
YORK RVR RNG VA  1200   57      10/ 10/ 12 1014.3R
YORKTOWN VA      1200   54 63  320/  7/  8 1014.7R
JAMESTOWN VA     1200   51     360/  2/  4   N/A
DOMINION TERM VA 1200   53      10/  6/  7 1015.0F
KIPTOPEKE VA     1200      65   70/  2/  3   N/A
CHES BAY BRIDGE  1200   60 64  340/ 11/ 14 1014.3F
CHESAPEAKE LGHT  1100   60     350/ 18/ 19 1014.8R
WILLOUBY STN VA  1200   56     360/  8/  9 1013.5F
S CRANEY ISL VA  1200          340/  8/ 10 1014.7F
CAPE HENRY BUOY  1200      67                N/A     3/ 4
1ST LANDING BUOY 1200   61     350/ 14/ 16 1014.4F
CAPE CHARLES BUO 1200      66                N/A     3/10   2/10
64NM E OF VA BCH 1200   62 66  340/ 12/ 16 1013.4R   3/10   2/10
DUCK PIER NC     1200   56 65  310/  6/  9 1014.1R
44100 DUCK FRF   1200      67                N/A     3/11   2/11
44056 DUCK FRF   1200                        N/A     3/10
OREGON INLET NC  1200   57 64  300/  3/  4 1014.7S
HATTERAS NC      1200   61 65  340/  9/ 12 1015.1S
DIAMOND SHLS NC  1200   65     340/ 12/ 16 1014.6R   3/ 9   3/ 9
CAPE LOOKOUT NC  1100   60     350/  6/  6 1014.7R
$$



USA.gov is the U.S. government's official web portal to all federal, state and local government web resources and services.